TGM annuale;;;;;;;;;;;;;;;TGM annuale;;;;;;;;;;;;;;;TGM annuale;;;;;;;;;;;;;
Tratta nr.47 SR429, Km 57.650, Castelfiorentino(FI) (flussi ascendente/discendente);;;;;;;;;;;;;;;Tratta nr.47 SR429, Km 57.650, Castelfiorentino(FI) (flusso ascendente);;;;;;;;;;;;;;;Tratta nr.47 SR429, Km 57.650, Castelfiorentino(FI) (flusso discendente);;;;;;;;;;;;;
Anno;01 Motocicli;02 Auto e monovolume;03 Auto e monovolume con rimorchio;04 Furgoncini e camioncini;05 Camion;06 Autotreni;07 Autoarticolati;08 Autobus;09 Veicoli non classificati;Totale;Feriali;Festivi;Prefestivi;;Anno;01 Motocicli;02 Auto e monovolume;03 Auto e monovolume con rimorchio;04 Furgoncini e camioncini;05 Camion;06 Autotreni;07 Autoarticolati;08 Autobus;09 Veicoli non classificati;Totale;Feriali;Festivi;Prefestivi;;Anno;01 Motocicli;02 Auto e monovolume;03 Auto e monovolume con rimorchio;04 Furgoncini e camioncini;05 Camion;06 Autotreni;07 Autoarticolati;08 Autobus;09 Veicoli non classificati;Totale;Feriali;Festivi;Prefestivi
2018;109;12158;14;1054;445;77;246;26;0;14129;15420;10331;12549;;2018;60;6114;7;542;227;43;132;13;0;7137;7789;5269;6277;;2018;49;6044;7;512;218;33;114;13;0;6991;7631;5062;6271
;;;;;;;;;;;;;;;;;;;;;;;;;;;;;;;;;;;;;;;;;;;
Tabella flussi 2018;;;;;;;;;;;;;;;Tabella flussi 2018;;;;;;;;;;;;;;;Tabella flussi 2018;;;;;;;;;;;;;
Tratta nr.47 SR429, Km 57.650, Castelfiorentino(FI) (flussi ascendente/discendente);;;;;;;;;;;;;;;Tratta nr.47 SR429, Km 57.650, Castelfiorentino(FI) (flusso ascendente);;;;;;;;;;;;;;;Tratta nr.47 SR429, Km 57.650, Castelfiorentino(FI) (flusso discendente);;;;;;;;;;;;;
;Traffico Totale;;;;;;;;;;Traffico Med.Orario 06:00 - 20:00;Traffico Ora di punta;;;;Traffico Totale;;;;;;;;;;Traffico Med.Orario 06:00 - 20:00;Traffico Ora di punta;;;;Traffico Totale;;;;;;;;;;Traffico Med.Orario 06:00 - 20:00;Traffico Ora di punta;
Giorno;01 Motocicli;02 Auto e monovolume;03 Auto e monovolume con rimorchio;04 Furgoncini e camioncini;05 Camion;06 Autotreni;07 Autoarticolati;08 Autobus;09 Veicoli non classificati;Totale;Totale;Ora di punta;Flusso totale ora di punta;;Giorno;01 Motocicli;02 Auto e monovolume;03 Auto e monovolume con rimorchio;04 Furgoncini e camioncini;05 Camion;06 Autotreni;07 Autoarticolati;08 Autobus;09 Veicoli non classificati;Totale;Totale;Ora di punta;Flusso totale ora di punta;;Giorno;01 Motocicli;02 Auto e monovolume;03 Auto e monovolume con rimorchio;04 Furgoncini e camioncini;05 Camion;06 Autotreni;07 Autoarticolati;08 Autobus;09 Veicoli non classificati;Totale;Totale;Ora di punta;Flusso totale ora di punta
01/01/2018;23;7778;2;204;21;2;6;7;0;8043;395;17;723;;01/01/2018;21;4081;2;132;12;2;3;4;0;4257;213;18;432;;01/01/2018;2;3697;0;72;9;0;3;3;0;3786;183;17;311
02/01/2018;38;11327;10;954;366;64;165;27;0;12951;814;18;1126;;02/01/2018;29;5870;6;490;188;40;98;13;0;6734;424;17;630;;02/01/2018;9;5457;4;464;178;24;67;14;0;6217;391;18;517
03/01/2018;28;11127;13;1115;378;77;199;14;0;12951;812;18;1007;;03/01/2018;26;5609;3;584;194;53;124;8;0;6601;414;17;568;;03/01/2018;2;5518;10;531;184;24;75;6;0;6350;398;7;501
04/01/2018;36;11469;3;1017;374;66;169;22;0;13156;827;18;1135;;04/01/2018;32;5816;2;516;195;35;89;10;0;6695;423;17;614;;04/01/2018;4;5653;1;501;179;31;80;12;0;6461;403;18;522
05/01/2018;32;12065;5;1024;423;65;194;22;0;13830;856;17;1194;;05/01/2018;28;6116;3;521;211;38;109;9;0;7035;438;17;665;;05/01/2018;4;5949;2;503;212;27;85;13;0;6795;418;17;529
06/01/2018;27;9382;6;328;30;2;6;4;0;9785;554;18;797;;06/01/2018;22;4685;3;174;15;1;1;1;0;4902;282;18;465;;06/01/2018;5;4697;3;154;15;1;5;3;0;4883;272;12;406
07/01/2018;50;9108;9;270;24;0;15;8;0;9484;532;17;883;;07/01/2018;37;4641;4;164;15;0;7;3;0;4871;278;17;501;;07/01/2018;13;4467;5;106;9;0;8;5;0;4613;254;17;382
08/01/2018;36;11972;11;1188;559;90;286;26;0;14168;895;18;1224;;08/01/2018;23;6063;3;601;286;48;162;12;0;7198;454;17;688;;08/01/2018;13;5909;8;587;273;42;124;14;0;6970;441;7;632
09/01/2018;32;12239;12;1330;571;99;268;21;0;14572;928;17;1222;;09/01/2018;24;6157;6;665;294;60;141;11;0;7358;471;17;695;;09/01/2018;8;6082;6;665;277;39;127;10;0;7214;457;7;665
10/01/2018;28;12810;6;1299;541;108;284;24;0;15100;956;17;1257;;10/01/2018;19;6402;3;660;271;64;153;11;0;7583;483;17;716;;10/01/2018;9;6408;3;639;270;44;131;13;0;7517;473;7;701
11/01/2018;24;12416;6;1212;575;117;252;24;0;14626;927;17;1189;;11/01/2018;21;6208;4;610;291;71;148;10;0;7363;468;17;667;;11/01/2018;3;6208;2;602;284;46;104;14;0;7263;459;7;649
12/01/2018;26;12985;8;1298;570;97;304;20;0;15308;952;17;1295;;12/01/2018;17;6566;2;679;283;61;163;10;0;7781;483;17;736;;12/01/2018;9;6419;6;619;287;36;141;10;0;7527;469;7;635
13/01/2018;50;11397;27;548;125;11;32;16;0;12206;710;17;964;;13/01/2018;28;5649;14;265;66;5;15;8;0;6050;360;17;500;;13/01/2018;22;5748;13;283;59;6;17;8;0;6156;350;12;470
14/01/2018;39;9618;8;210;25;3;13;16;0;9932;556;17;901;;14/01/2018;25;4863;3;116;13;1;8;9;0;5038;286;18;469;;14/01/2018;14;4755;5;94;12;2;5;7;0;4894;270;17;442
15/01/2018;32;12382;11;1152;581;116;340;27;0;14641;927;17;1273;;15/01/2018;19;6200;5;596;302;64;181;13;0;7380;469;17;749;;15/01/2018;13;6182;6;556;279;52;159;14;0;7261;459;7;649
16/01/2018;32;12267;9;1241;611;138;331;25;0;14654;930;17;1191;;16/01/2018;29;6181;6;634;306;87;179;12;0;7434;473;17;670;;16/01/2018;3;6086;3;607;305;51;152;13;0;7220;456;7;620
17/01/2018;43;12588;7;1338;593;106;343;24;0;15042;947;18;1270;;17/01/2018;30;6328;2;677;303;59;186;13;0;7598;479;17;716;;17/01/2018;13;6260;5;661;290;47;157;11;0;7444;468;7;674
18/01/2018;25;12788;8;1175;604;100;372;25;0;15097;953;17;1213;;18/01/2018;18;6408;2;607;314;55;197;12;0;7613;483;17;681;;18/01/2018;7;6380;6;568;290;45;175;13;0;7484;470;7;642
19/01/2018;28;13118;12;1307;589;86;301;29;0;15470;953;17;1278;;19/01/2018;22;6667;5;673;306;51;160;14;0;7898;486;17;712;;19/01/2018;6;6451;7;634;283;35;141;15;0;7572;467;7;628
20/01/2018;59;11802;18;531;95;9;51;15;0;12580;723;17;952;;20/01/2018;42;5894;11;260;45;3;26;8;0;6289;366;17;496;;20/01/2018;17;5908;7;271;50;6;25;7;0;6291;357;12;463
21/01/2018;66;9711;6;253;18;5;6;9;0;10074;571;17;989;;21/01/2018;41;4909;4;140;10;4;4;4;0;5116;296;17;562;;21/01/2018;25;4802;2;113;8;1;2;5;0;4958;275;17;427
22/01/2018;40;12046;4;1132;645;106;344;26;0;14343;909;17;1204;;22/01/2018;28;6079;2;577;329;64;190;11;0;7280;462;17;702;;22/01/2018;12;5967;2;555;316;42;154;15;0;7063;447;7;659
23/01/2018;53;12400;13;1391;707;138;346;24;0;15072;955;18;1265;;23/01/2018;39;6248;8;695;362;74;184;10;0;7620;485;17;690;;23/01/2018;14;6152;5;696;345;64;162;14;0;7452;471;7;701
24/01/2018;40;12665;10;1442;640;117;314;24;0;15252;958;17;1257;;24/01/2018;27;6406;6;735;334;62;189;13;0;7772;490;17;725;;24/01/2018;13;6259;4;707;306;55;125;11;0;7480;468;7;710
25/01/2018;24;12636;4;1282;624;118;343;27;0;15058;942;18;1334;;25/01/2018;17;6346;2;645;318;71;182;13;0;7594;477;18;744;;25/01/2018;7;6290;2;637;306;47;161;14;0;7464;465;7;650
26/01/2018;29;12878;11;1340;661;99;335;29;0;15382;949;17;1256;;26/01/2018;19;6431;7;689;345;53;179;15;0;7738;481;17;711;;26/01/2018;10;6447;4;651;316;46;156;14;0;7644;468;7;657
27/01/2018;74;11970;20;598;103;8;47;23;0;12843;742;17;980;;27/01/2018;50;5984;13;295;50;4;21;13;0;6430;375;17;519;;27/01/2018;24;5986;7;303;53;4;26;10;0;6413;367;12;464
28/01/2018;87;9844;17;305;24;3;9;12;0;10301;580;17;1008;;28/01/2018;44;4983;9;168;14;2;6;4;0;5230;299;17;584;;28/01/2018;43;4861;8;137;10;1;3;8;0;5071;281;17;424
29/01/2018;30;12093;14;1148;588;113;323;26;0;14335;907;17;1244;;29/01/2018;20;6067;7;592;303;61;167;11;0;7228;461;17;722;;29/01/2018;10;6026;7;556;285;52;156;15;0;7107;446;7;667
30/01/2018;39;12482;13;1295;655;127;342;19;0;14972;947;18;1293;;30/01/2018;29;6282;6;663;333;80;187;10;0;7590;484;18;707;;30/01/2018;10;6200;7;632;322;47;155;9;0;7382;463;7;680
31/01/2018;34;12598;5;1396;562;116;332;25;0;15068;951;18;1262;;31/01/2018;27;6379;0;697;286;68;180;16;0;7653;485;17;733;;31/01/2018;7;6219;5;699;276;48;152;9;0;7415;466;7;692
01/02/2018;38;12013;6;1191;575;116;331;26;0;14296;901;18;1237;;01/02/2018;33;6017;2;612;306;58;178;14;0;7220;457;18;687;;01/02/2018;5;5996;4;579;269;58;153;12;0;7076;444;7;651
02/02/2018;25;12634;7;1271;558;138;295;24;0;14952;928;18;1202;;02/02/2018;21;6391;4;647;289;64;157;12;0;7585;472;18;663;;02/02/2018;4;6243;3;624;269;74;138;12;0;7367;456;8;589
03/02/2018;27;10886;9;494;92;5;43;24;0;11580;672;11;876;;03/02/2018;27;5443;3;242;44;0;18;13;0;5790;339;11;473;;03/02/2018;0;5443;6;252;48;5;25;11;0;5790;333;10;431
04/02/2018;34;9406;5;241;26;6;6;12;0;9736;545;17;980;;04/02/2018;21;4743;3;140;15;5;3;5;0;4935;279;18;514;;04/02/2018;13;4663;2;101;11;1;3;7;0;4801;267;17;474
05/02/2018;45;12212;17;1111;553;107;341;20;0;14406;911;18;1208;;05/02/2018;32;6145;9;553;289;69;180;9;0;7286;461;18;663;;05/02/2018;13;6067;8;558;264;38;161;11;0;7120;450;8;661
06/02/2018;29;12319;15;1383;583;130;302;18;0;14779;935;17;1253;;06/02/2018;25;6165;8;701;294;83;158;8;0;7442;472;17;700;;06/02/2018;4;6154;7;682;289;47;144;10;0;7337;463;7;683
07/02/2018;24;12562;10;1385;553;105;343;33;0;15015;942;18;1214;;07/02/2018;22;6281;4;730;278;61;199;16;0;7591;478;17;698;;07/02/2018;2;6281;6;655;275;44;144;17;0;7424;464;7;683
08/02/2018;44;12653;12;1288;583;134;311;23;0;15048;945;18;1298;;08/02/2018;31;6314;5;669;294;78;178;13;0;7582;478;17;709;;08/02/2018;13;6339;7;619;289;56;133;10;0;7466;466;7;640
09/02/2018;28;13058;11;1299;549;103;297;21;0;15366;953;17;1318;;09/02/2018;17;6613;6;654;270;63;163;11;0;7797;485;17;747;;09/02/2018;11;6445;5;645;279;40;134;10;0;7569;467;7;632
10/02/2018;71;11849;16;569;98;11;53;23;0;12690;747;12;945;;10/02/2018;40;5929;6;292;46;3;22;14;0;6352;377;17;482;;10/02/2018;31;5920;10;277;52;8;31;9;0;6338;370;12;488
11/02/2018;56;10059;19;271;34;4;9;15;0;10467;596;17;999;;11/02/2018;30;5061;9;148;20;4;7;7;0;5286;308;18;562;;11/02/2018;26;4998;10;123;14;0;2;8;0;5181;288;17;464
12/02/2018;16;12263;11;1151;581;105;356;30;0;14513;926;18;1256;;12/02/2018;12;6169;5;573;311;59;201;12;0;7342;467;18;675;;12/02/2018;4;6094;6;578;270;46;155;18;0;7171;459;7;662
13/02/2018;33;12611;11;1385;631;117;365;25;0;15178;963;18;1364;;13/02/2018;23;6364;5;719;318;62;211;12;0;7714;492;18;758;;13/02/2018;10;6247;6;666;313;55;154;13;0;7464;471;7;676
14/02/2018;32;13241;10;1440;632;127;333;29;0;15844;984;18;1305;;14/02/2018;24;6647;7;725;338;70;188;13;0;8012;498;17;736;;14/02/2018;8;6594;3;715;294;57;145;16;0;7832;486;7;686
15/02/2018;25;12946;12;1265;592;111;314;19;0;15284;960;18;1354;;15/02/2018;19;6465;7;639;307;67;175;8;0;7687;485;18;727;;15/02/2018;6;6481;5;626;285;44;139;11;0;7597;475;7;658
16/02/2018;25;12969;6;1337;569;103;301;24;0;15334;955;17;1301;;16/02/2018;20;6522;3;690;290;52;171;12;0;7760;484;17;703;;16/02/2018;5;6447;3;647;279;51;130;12;0;7574;471;7;671
17/02/2018;35;11053;18;533;109;8;51;15;0;11822;687;12;928;;17/02/2018;26;5486;8;261;59;1;23;8;0;5872;347;17;441;;17/02/2018;9;5567;10;272;50;7;28;7;0;5950;341;12;494
18/02/2018;27;9314;2;235;18;3;12;12;0;9623;542;17;889;;18/02/2018;22;4735;0;121;9;3;8;5;0;4903;280;17;469;;18/02/2018;5;4579;2;114;9;0;4;7;0;4720;262;18;486
19/02/2018;24;11947;5;1170;575;89;421;28;0;14259;907;18;1211;;19/02/2018;21;6024;3;610;291;51;216;12;0;7228;459;17;728;;19/02/2018;3;5923;2;560;284;38;205;16;0;7031;448;7;667
20/02/2018;28;12291;13;1274;637;97;341;30;0;14711;936;18;1281;;20/02/2018;19;6177;6;666;321;60;186;15;0;7450;478;18;696;;20/02/2018;9;6114;7;608;316;37;155;15;0;7261;458;7;659
21/02/2018;20;12470;17;1391;578;101;398;31;0;15006;950;18;1260;;21/02/2018;14;6258;6;714;297;51;209;17;0;7566;481;17;707;;21/02/2018;6;6212;11;677;281;50;189;14;0;7440;469;7;719
22/02/2018;22;12647;11;1237;600;167;339;22;0;15045;949;18;1285;;22/02/2018;16;6342;6;631;312;96;178;11;0;7592;480;17;712;;22/02/2018;6;6305;5;606;288;71;161;11;0;7453;468;7;673
23/02/2018;16;12894;8;1322;569;119;315;33;0;15276;947;17;1263;;23/02/2018;14;6499;7;672;294;67;173;17;0;7743;480;17;712;;23/02/2018;2;6395;1;650;275;52;142;16;0;7533;467;7;651
24/02/2018;47;11538;7;567;107;8;55;21;0;12350;725;17;957;;24/02/2018;30;5759;5;295;53;3;27;10;0;6182;366;17;478;;24/02/2018;17;5779;2;272;54;5;28;11;0;6168;359;17;479
25/02/2018;22;7321;9;191;24;0;6;12;0;7585;421;12;612;;25/02/2018;20;3649;4;97;14;0;2;3;0;3789;213;12;289;;25/02/2018;2;3672;5;94;10;0;4;9;0;3796;208;12;323
26/02/2018;25;11571;9;1127;471;57;238;25;0;13523;877;17;1165;;26/02/2018;21;5826;4;568;240;26;110;11;0;6806;441;17;652;;26/02/2018;4;5745;5;559;231;31;128;14;0;6717;436;7;669
27/02/2018;20;12399;8;1249;600;108;314;17;0;14715;943;18;1242;;27/02/2018;15;6255;3;624;301;57;171;9;0;7435;480;17;701;;27/02/2018;5;6144;5;625;299;51;143;8;0;7280;464;7;653
28/02/2018;23;12552;15;1311;642;125;341;28;0;15037;961;17;1246;;28/02/2018;18;6321;5;669;339;72;193;15;0;7632;489;18;681;;28/02/2018;5;6231;10;642;303;53;148;13;0;7405;472;7;676
01/03/2018;31;5550;3;392;176;48;154;22;0;6376;388;17;592;;01/03/2018;23;2743;2;196;102;29;94;10;0;3199;195;18;317;;01/03/2018;8;2807;1;196;74;19;60;12;0;3177;192;17;279
02/03/2018;21;12612;8;1277;691;163;516;31;0;15319;961;18;1226;;02/03/2018;20;6249;5;650;368;94;288;15;0;7689;484;18;673;;02/03/2018;1;6363;3;627;323;69;228;16;0;7630;477;7;598
03/03/2018;16;10413;5;552;129;11;55;18;0;11199;648;17;843;;03/03/2018;14;5211;0;280;69;3;21;11;0;5609;326;17;435;;03/03/2018;2;5202;5;272;60;8;34;7;0;5590;322;11;437
04/03/2018;32;9784;3;251;22;0;10;11;0;10113;577;18;996;;04/03/2018;18;4967;1;136;11;0;5;5;0;5143;296;18;577;;04/03/2018;14;4817;2;115;11;0;5;6;0;4970;281;16;488
05/03/2018;21;12032;14;1182;622;122;341;22;0;14356;905;17;1223;;05/03/2018;20;6045;4;608;318;70;194;11;0;7270;460;17;662;;05/03/2018;1;5987;10;574;304;52;147;11;0;7086;446;7;656
06/03/2018;30;12607;5;1276;652;125;345;24;0;15064;952;18;1341;;06/03/2018;22;6335;3;650;330;60;194;10;0;7604;482;18;759;;06/03/2018;8;6272;2;626;322;65;151;14;0;7460;470;7;667
07/03/2018;21;12738;6;1389;648;98;357;33;0;15290;962;18;1318;;07/03/2018;13;6411;3;702;359;63;203;16;0;7770;490;18;732;;07/03/2018;8;6327;3;687;289;35;154;17;0;7520;472;7;702
08/03/2018;30;13447;15;1255;577;93;339;33;0;15789;990;18;1304;;08/03/2018;20;6741;7;638;282;53;190;14;0;7945;496;18;716;;08/03/2018;10;6706;8;617;295;40;149;19;0;7844;494;7;684
09/03/2018;42;13571;11;1364;626;103;312;34;0;16063;982;18;1299;;09/03/2018;23;6794;6;709;323;59;166;17;0;8097;497;17;731;;09/03/2018;19;6777;5;655;303;44;146;17;0;7966;486;7;652
10/03/2018;32;11685;22;649;120;9;57;21;0;12595;741;12;933;;10/03/2018;24;5855;8;340;61;4;28;11;0;6331;374;18;519;;10/03/2018;8;5830;14;309;59;5;29;10;0;6264;366;12;501
11/03/2018;31;8581;0;231;40;1;12;18;0;8914;495;17;801;;11/03/2018;30;4337;0;138;24;1;7;8;0;4545;255;17;451;;11/03/2018;1;4244;0;93;16;0;5;10;0;4369;240;19;360
12/03/2018;25;12515;5;1227;596;134;451;44;0;14997;956;8;1248;;12/03/2018;19;6333;3;630;311;76;275;24;0;7671;489;17;704;;12/03/2018;6;6182;2;597;285;58;176;20;0;7326;467;7;688
13/03/2018;47;12691;3;1352;624;108;348;38;0;15211;959;18;1289;;13/03/2018;36;6367;2;690;311;69;190;17;0;7682;485;18;723;;13/03/2018;11;6324;1;662;313;39;158;21;0;7529;475;7;676
14/03/2018;42;13017;10;1446;562;132;365;42;0;15616;987;18;1356;;14/03/2018;30;6574;7;749;296;79;203;19;0;7957;505;18;754;;14/03/2018;12;6443;3;697;266;53;162;23;0;7659;481;7;710
15/03/2018;25;12931;14;1281;587;131;327;27;0;15323;968;18;1250;;15/03/2018;19;6477;5;672;306;77;181;15;0;7752;492;18;692;;15/03/2018;6;6454;9;609;281;54;146;12;0;7571;475;7;634
16/03/2018;45;13251;13;1317;556;104;365;28;0;15679;973;17;1325;;16/03/2018;31;6660;6;669;278;58;192;14;0;7908;490;18;730;;16/03/2018;14;6591;7;648;278;46;173;14;0;7771;484;7;629
17/03/2018;35;11814;13;527;123;3;57;26;0;12598;731;11;910;;17/03/2018;25;5940;4;268;62;1;24;12;0;6336;365;11;456;;17/03/2018;10;5874;9;259;61;2;33;14;0;6262;366;12;455
18/03/2018;24;9618;4;262;38;0;3;15;0;9964;558;17;881;;18/03/2018;21;4814;2;137;21;0;1;5;0;5001;283;17;454;;18/03/2018;3;4804;2;125;17;0;2;10;0;4963;275;18;432
19/03/2018;22;12493;6;1183;548;102;326;33;0;14713;932;18;1264;;19/03/2018;18;6294;3;603;278;58;185;17;0;7456;473;17;686;;19/03/2018;4;6199;3;580;270;44;141;16;0;7257;459;7;669
20/03/2018;30;12530;11;1382;634;130;365;46;0;15128;960;18;1348;;20/03/2018;22;6343;8;714;323;74;204;27;0;7715;494;18;742;;20/03/2018;8;6187;3;668;311;56;161;19;0;7413;467;7;682
21/03/2018;22;12802;16;1429;641;109;391;34;0;15444;975;18;1346;;21/03/2018;17;6408;10;728;339;51;218;13;0;7784;494;18;748;;21/03/2018;5;6394;6;701;302;58;173;21;0;7660;481;7;709
22/03/2018;41;12972;18;1354;592;143;389;28;0;15537;988;17;1315;;22/03/2018;25;6534;8;674;300;72;221;15;0;7849;500;18;735;;22/03/2018;16;6438;10;680;292;71;168;13;0;7688;488;7;678
23/03/2018;56;13300;18;1418;664;113;337;31;0;15937;986;18;1367;;23/03/2018;31;6688;5;735;331;61;185;18;0;8054;497;18;751;;23/03/2018;25;6612;13;683;333;52;152;13;0;7883;489;7;682
24/03/2018;118;11600;14;604;130;8;59;35;0;12568;736;12;934;;24/03/2018;65;5773;6;311;64;4;29;20;0;6272;369;18;468;;24/03/2018;53;5827;8;293;66;4;30;15;0;6296;367;12;508
25/03/2018;114;10603;15;377;47;3;12;16;0;11187;630;18;1002;;25/03/2018;73;5384;6;194;25;2;8;7;0;5699;323;19;570;;25/03/2018;41;5219;9;183;22;1;4;9;0;5488;307;16;456
26/03/2018;60;12594;9;1288;650;71;397;30;0;15099;955;18;1370;;26/03/2018;37;6302;6;642;330;42;204;17;0;7580;479;18;761;;26/03/2018;23;6292;3;646;320;29;193;13;0;7519;476;7;678
27/03/2018;49;12906;18;1464;701;132;378;33;0;15681;992;18;1404;;27/03/2018;27;6435;8;752;351;78;190;17;0;7858;498;18;776;;27/03/2018;22;6471;10;712;350;54;188;16;0;7823;494;7;710
28/03/2018;37;13564;6;1540;608;102;367;27;0;16251;1018;18;1411;;28/03/2018;25;6807;1;782;308;58;203;13;0;8197;516;18;794;;28/03/2018;12;6757;5;758;300;44;164;14;0;8054;502;7;727
29/03/2018;56;13620;11;1362;652;111;368;31;0;16211;1014;18;1469;;29/03/2018;32;6777;4;698;339;66;197;16;0;8129;509;18;784;;29/03/2018;24;6843;7;664;313;45;171;15;0;8082;505;18;685
30/03/2018;62;13695;24;1409;447;64;212;19;0;15932;980;18;1313;;30/03/2018;27;6763;11;673;222;28;113;9;0;7846;484;17;709;;30/03/2018;35;6932;13;736;225;36;99;10;0;8086;496;18;614
31/03/2018;44;10707;12;593;88;4;47;24;0;11519;667;11;931;;31/03/2018;27;5160;5;294;37;1;18;10;0;5552;323;17;474;;31/03/2018;17;5547;7;299;51;3;29;14;0;5967;344;11;481
01/04/2018;97;9767;5;242;12;3;2;11;0;10139;566;11;935;;01/04/2018;51;4886;3;126;7;1;1;6;0;5081;283;18;548;;01/04/2018;46;4881;2;116;5;2;1;5;0;5058;283;11;539
02/04/2018;242;13900;16;530;50;1;17;27;0;14783;866;18;1438;;02/04/2018;124;7461;8;348;31;0;12;19;0;8003;462;18;978;;02/04/2018;118;6439;8;182;19;1;5;8;0;6780;403;11;759
03/04/2018;67;13395;19;1386;439;49;229;26;0;15610;975;18;1388;;03/04/2018;35;6860;11;735;228;28;124;11;0;8032;501;18;796;;03/04/2018;32;6535;8;651;211;21;105;15;0;7578;474;7;651
04/04/2018;24;13370;16;1416;621;125;346;29;0;15947;1008;18;1285;;04/04/2018;19;6707;6;742;317;72;186;13;0;8062;512;17;724;;04/04/2018;5;6663;10;674;304;53;160;16;0;7885;497;7;657
05/04/2018;41;13568;15;1352;637;145;349;34;0;16141;1018;18;1448;;05/04/2018;25;6809;7;709;321;79;198;15;0;8163;514;18;808;;05/04/2018;16;6759;8;643;316;66;151;19;0;7978;504;7;692
06/04/2018;99;14159;11;1443;648;117;348;34;0;16859;1040;18;1421;;06/04/2018;53;7120;5;742;326;67;184;18;0;8515;526;18;789;;06/04/2018;46;7039;6;701;322;50;164;16;0;8344;514;7;700
07/04/2018;178;12007;28;612;139;14;81;20;0;13079;759;18;953;;07/04/2018;88;5997;15;317;71;4;37;9;0;6538;383;18;528;;07/04/2018;90;6010;13;295;68;10;44;11;0;6541;376;11;505
08/04/2018;409;10792;14;308;37;3;7;17;0;11587;661;19;1038;;08/04/2018;162;5456;8;181;20;3;5;7;0;5842;337;18;646;;08/04/2018;247;5336;6;127;17;0;2;10;0;5745;324;16;480
09/04/2018;30;12781;10;1260;570;117;400;36;0;15204;966;18;1293;;09/04/2018;24;6430;7;647;284;70;213;16;0;7691;489;18;725;;09/04/2018;6;6351;3;613;286;47;187;20;0;7513;477;7;654
10/04/2018;32;13070;19;1447;658;139;346;33;0;15744;997;18;1331;;10/04/2018;24;6538;10;731;337;82;182;16;0;7920;504;18;728;;10/04/2018;8;6532;9;716;321;57;164;17;0;7824;493;7;675
11/04/2018;37;13139;12;1415;632;103;354;39;0;15731;992;18;1313;;11/04/2018;28;6637;4;734;319;55;186;20;0;7983;503;18;725;;11/04/2018;9;6502;8;681;313;48;168;19;0;7748;490;7;720
12/04/2018;47;13401;13;1393;586;136;355;44;0;15975;1006;18;1366;;12/04/2018;29;6722;9;716;292;77;187;19;0;8051;508;18;739;;12/04/2018;18;6679;4;677;294;59;168;25;0;7924;498;7;682
13/04/2018;65;14097;11;1433;641;102;307;38;0;16694;1021;18;1357;;13/04/2018;37;7062;5;719;322;57;168;20;0;8390;514;17;759;;13/04/2018;28;7035;6;714;319;45;139;18;0;8304;507;7;672
14/04/2018;164;12540;28;672;129;13;54;33;0;13633;791;11;996;;14/04/2018;85;6264;12;344;67;5;26;18;0;6821;400;19;528;;14/04/2018;79;6276;16;328;62;8;28;15;0;6812;391;11;499
15/04/2018;56;10254;17;310;45;2;8;15;0;10707;591;18;916;;15/04/2018;46;5178;8;174;22;2;4;7;0;5441;305;18;509;;15/04/2018;10;5076;9;136;23;0;4;8;0;5266;286;17;427
16/04/2018;80;12982;14;1247;670;84;359;29;0;15465;974;18;1306;;16/04/2018;45;6518;6;645;339;47;190;15;0;7805;493;17;720;;16/04/2018;35;6464;8;602;331;37;169;14;0;7660;480;7;708
17/04/2018;107;12970;10;1444;654;124;367;40;0;15716;989;18;1344;;17/04/2018;62;6551;5;717;332;71;205;21;0;7964;504;18;780;;17/04/2018;45;6419;5;727;322;53;162;19;0;7752;485;7;694
18/04/2018;92;13543;13;1464;624;91;366;43;0;16236;1018;18;1359;;18/04/2018;54;6760;6;747;324;56;196;21;0;8164;515;18;768;;18/04/2018;38;6783;7;717;300;35;170;22;0;8072;503;7;709
19/04/2018;92;13472;10;1370;614;118;318;42;0;16036;1004;18;1415;;19/04/2018;58;6751;6;726;301;70;174;19;0;8105;510;18;775;;19/04/2018;34;6721;4;644;313;48;144;23;0;7931;494;7;677
20/04/2018;133;13984;20;1466;647;96;380;36;0;16762;1023;17;1313;;20/04/2018;73;7032;11;757;323;47;198;17;0;8458;518;17;759;;20/04/2018;60;6952;9;709;324;49;182;19;0;8304;504;7;711
21/04/2018;191;12518;16;714;143;7;63;33;0;13685;789;11;1009;;21/04/2018;77;6235;5;354;74;4;28;14;0;6791;396;11;496;;21/04/2018;114;6283;11;360;69;3;35;19;0;6894;392;11;513
22/04/2018;261;10648;17;370;43;2;6;27;0;11374;630;18;996;;22/04/2018;145;5371;10;181;23;1;2;13;0;5746;321;19;548;;22/04/2018;116;5277;7;189;20;1;4;14;0;5628;309;17;470
23/04/2018;103;13040;11;1322;707;116;408;36;0;15743;987;18;1343;;23/04/2018;53;6513;6;674;353;68;207;19;0;7893;496;18;717;;23/04/2018;50;6527;5;648;354;48;201;17;0;7850;491;7;698
24/04/2018;126;14067;12;1538;718;127;389;39;0;17016;1048;18;1422;;24/04/2018;73;7081;9;780;375;69;206;18;0;8611;532;18;790;;24/04/2018;53;6986;3;758;343;58;183;21;0;8405;516;7;701
25/04/2018;341;10979;16;547;67;7;14;28;0;11999;689;19;1078;;25/04/2018;174;5553;10;272;39;3;6;17;0;6074;342;18;656;;25/04/2018;167;5426;6;275;28;4;8;11;0;5925;346;10;563
26/04/2018;188;13714;19;1461;738;117;356;44;0;16637;1037;18;1391;;26/04/2018;102;6854;8;749;376;64;181;22;0;8356;523;17;763;;26/04/2018;86;6860;11;712;362;53;175;22;0;8281;514;7;724
27/04/2018;155;13924;23;1553;685;124;355;29;0;16848;1036;17;1388;;27/04/2018;76;6968;8;814;345;67;191;14;0;8483;519;17;759;;27/04/2018;79;6956;15;739;340;57;164;15;0;8365;516;18;650
28/04/2018;342;12389;34;811;152;12;91;32;0;13863;816;10;1090;;28/04/2018;143;6050;10;385;71;6;40;18;0;6723;394;10;532;;28/04/2018;199;6339;24;426;81;6;51;14;0;7140;422;11;570
29/04/2018;291;10940;35;462;45;5;13;25;0;11816;665;19;986;;29/04/2018;148;5492;23;251;28;3;6;10;0;5961;330;19;578;;29/04/2018;143;5448;12;211;17;2;7;15;0;5855;336;11;513
30/04/2018;269;12371;22;1184;399;44;229;29;0;14547;890;18;1173;;30/04/2018;177;6260;13;614;207;25;118;10;0;7424;453;17;676;;30/04/2018;92;6111;9;570;192;19;111;19;0;7123;437;10;583
01/05/2018;141;9732;9;444;44;6;20;20;0;10416;612;18;1018;;01/05/2018;105;5156;3;294;29;3;9;11;0;5610;333;18;618;;01/05/2018;36;4576;6;150;15;3;11;9;0;4806;279;11;473
02/05/2018;54;13952;17;1386;636;97;374;41;0;16557;1046;18;1326;;02/05/2018;35;7049;7;692;340;57;188;18;0;8386;530;18;740;;02/05/2018;19;6903;10;694;296;40;186;23;0;8171;516;7;707
03/05/2018;44;13872;14;1451;681;102;326;40;0;16530;1047;18;1375;;03/05/2018;29;6947;8;740;347;58;175;18;0;8322;530;18;775;;03/05/2018;15;6925;6;711;334;44;151;22;0;8208;517;7;683